www.pogodaiklimat.ru

Погода и климат >> Архив погоды >> Германия >> Frankfurt


АРХИВ ПОГОДЫ в Frankfurt

Время (UTC), дата Ветер
(напр.,м/с)
 
Видим.   Явления Облачность Т
(С)
Тd
(С)
f
(%)
Тe
(С)
Тes
(С)
Комфортность P
(гПа)
Po
(гПа)
Тmin
(С)
Tmax
(С)
R
(мм)
R24
(мм)
S
(см)
16 10.07 З 5-11
{11}
55 км 9/9 1470 м
[Cu Sc]
+20.6 +7.2 42 +22 +22 комфорт 1015.4 1003.2
17 10.07 З 6-8
{8}
50 км 9/6 1440 м
[Cu Sc Ac trans]
+20.1 +7.3 43 +21 +21 комфорт 1015.2 1003.0
18 10.07 СЗ 6 35 км в посл. час ливневой дождь 9/8 1440 м
[Cu Sc Ac As]
+18.5 +9.3 55 +18 +18 холодно 1015.2 1003.0 +16.1 +22.4 0.0
20 10.07 ЮЗ 7-11
{11}
15 км слабый ливневой дождь 9/9 1080 м
[Cb calv]
+16.6 +11.2 70 +15 +15 холодно 1015.1 1002.8
19 10.07 З 3-5
{7}
45 км 8/1 1080 м
[Cu Sc Ac trans]
+18.2 +9.6 57 +19 +19 по сезону 1014.9 1002.7
21 10.07 ЮЗ 4-6
{11}
18 км в посл. час ливневой дождь 9/9 1020 м
[Cb calv]
+15.3 +12.3 82 +14 +14 холодно 1015.2 1002.8 0.3
22 10.07 З 3-4
{6}
25 км в посл. час ливневой дождь 9/9 540 м
[Cb calv]
+14.9 +12.5 86 +14 +14 по сезону 1015.2 1002.8
23 10.07 З 5-7
{7}
30 км 8/3 540 м
[Cu Sc Ac trans]
+15.1 +11.5 79 +14 +14 по сезону 1015.4 1003.0
00 11.07 СЗ 5 30 км {ливн. осадки} 6/3 540 м
[Cu Sc Ac trans]
+14.4 +10.9 79 +13 +13 прохладно 1015.2 1002.8 0.3
02 11.07 СЗ 4-6
{6}
30 км 1/1 540 м
[Cu Sc Ac trans]
+12.9 +10.1 83 +11 +11 прохладно 1015.3 1002.8
01 11.07 СЗ 4-6
{6}
30 км 1/1 540 м
[Cu hum Ac trans]
+13.6 +10.4 81 +12 +12 прохладно 1015.1 1002.7
03 11.07 СЗ 3-5
{6}
20 км 1/1 540 м
[Cu Sc Ac trans]
+12.5 +9.9 84 +11 +11 холодно 1015.3 1002.8
04 11.07 СЗ 3-5
{8}
18 км 4/3 540 м
[Cu Sc Ac trans]
+12.3 +9.8 85 +11 +11 прохладно 1015.6 1003.1
05 11.07 СЗ 3-5
{7}
18 км 6/5 240 м
[Cu Sc Ac trans]
+12.9 +9.9 82 +12 +12 прохладно 1015.7 1003.2
06 11.07 СЗ 2 20 км 6/6 300 м
[Cu Sc Ac trans Ci fib]
+14.2 +10.2 77 +14 +15 по сезону 1016.1 1003.7 +11.7 +19.2
08 11.07 СВ 3-5
{5}
35 км 9/8 540 м
[Cu Sc Ac trans]
+16.3 +9.9 66 +16 +17 холодно 1016.3 1004.0
07 11.07 С 2-3
{4}
28 км 8/8 480 м
[Cu Sc Ac trans Ci fib]
+15.5 +9.9 69 +15 +17 холодно 1016.4 1004.0
09 11.07 С 4 40 км 9/9 660 м
[Cu Sc]
+17.0 +10.0 63 +17 +17 прохладно 1016.5 1004.2
10 11.07 СВ 3-5
{6}
45 км 9/6 840 м
[Cu Sc Ac trans]
+18.6 +8.8 53 +19 +22 очень
холодно
1016.3 1004.1
11 11.07 СВ 2-5
{7}
40 км 9/6 960 м
[Cu Sc Ac trans]
+18.9 +9.3 54 +20 +24 холодно 1016.3 1004.1
12 11.07 ЮЗ 2 45 км 9/6 1080 м
[Cu Sc Ac trans]
+19.7 +8.9 50 +21 +25 комфорт 1016.2 1004.0
14 11.07 С 2-4
{6}
50 км в посл. час ливневой дождь 4/4 1200 м
[Cu Sc Ac As]
+20.3 +8.4 46 +22 +30 комфорт 1016.1 1003.9
13 11.07 С 4-6
{8}
50 км 9/4 1200 м
[Cu Sc Ac As]
+19.8 +9.1 50 +21 +24 комфорт 1016.2 1004.0
15 11.07 СЗ 5-7
{8}
50 км в посл. час дождь {ливн. осадки} 9/9 1260 м
[Cu Sc]
+19.4 +10.0 55 +20 +21 прохладно 1016.3 1004.1 0.0
16 11.07 СЗ 4-7
{7}
40 км слабый дождь 9/9 1260 м
[Cu Sc]
+19.4 +9.9 54 +20 +21 холодно 1016.2 1004.0
17 11.07 СЗ 3-5
{5}
30 км слабый дождь 9/6 1260 м
[Cu Sc As trans]
+18.7 +11.5 63 +20 +20 холодно 1016.3 1004.1
18 11.07 З 1 30 км слабый дождь {ливн. осадки} 9/6 1050 м
[Sc As trans]
+16.8 +14.1 84 +18 +18 холодно 1016.3 1004.0 +14.3 +22.1 0.4
20 11.07 ЮЗ 4-6
{6}
20 км в посл. час дождь 10/1 750 м
[Frnb As op]
+16.0 +13.4 85 +15 +15 холодно 1016.5 1004.2
19 11.07 В 1-2
{2}
25 км слабый дождь 10/6 750 м
[Cu Sc As op]
+15.8 +13.5 86 +16 +16 прохладно 1016.5 1004.2
21 11.07 Ю 2-4
{6}
20 км слабый дождь 10/1 270 м
[Frnb As op]
+15.9 +12.6 81 +16 +16 прохладно 1016.6 1004.3 0.3
22 11.07 Ю 2-3
{6}
15 км слабый дождь 10/9 450 м
[Cu Sc]
+15.3 +13.4 88 +15 +15 по сезону 1016.6 1004.2
23 11.07 Ю 2-3
{3}
12 км слабый дождь 10/10 180 м
[Cu Sc]
+15.1 +13.6 91 +15 +15 по сезону 1016.6 1004.2
00 12.07 ЮЗ 3 10 км в посл. час дождь 10/1 300 м
[Cu Sc Ac As]
+15.0 +13.8 93 +14 +14 по сезону 1016.4 1004.0 0.0
02 12.07 ЮВ 1-2
{3}
6000 м местами туман поземный туман 3/1 420 м
[Sc Ac As]
+13.5 +12.4 93 +14 +14 по сезону 1016.3 1003.9
01 12.07 Ю 3-3
{3}
8000 м 9/1 360 м
[Cu Sc Ac As]
+14.8 +13.6 93 +14 +14 по сезону 1016.2 1003.8
03 12.07 В 1-1
{3}
5000 м местами туман поземный 5/4 800 м
[Cu Sc Ac As Ci fib]
+13.5 +12.8 96 +14 +14 по сезону 1016.6 1004.2
04 12.07 В 1-2
{2}
6000 м местами туман поземный туман 4/4 300 м
[Cu Sc]
+13.1 +12.4 96 +13 +13 прохладно 1017.0 1004.5
05 12.07 ЮЗ 1-1
{2}
8000 м 9/9 240 м
[Sc]
+14.6 +13.6 94 +15 +15 по сезону 1017.0 1004.6
06 12.07 С 2 11 км 9/9 300 м
[Cu Sc]
+16.1 +14.4 90 +16 +16 по сезону 1017.2 1004.9 +12.7 +16.8
08 12.07 В 2-3
{4}
30 км 9/9 540 м
[Cu Sc]
+18.3 +13.3 73 +19 +20 по сезону 1018.0 1005.7
07 12.07 СВ 2-3
{3}
18 км 9/9 540 м
[Cu Sc]
+17.8 +13.8 77 +18 +19 прохладно 1017.6 1005.3
09 12.07 В 2 35 км 9/9 600 м
[Cu Sc]
+19.0 +12.9 68 +21 +22 комфорт 1018.1 1005.9
10 12.07 СЗ 2-4
{4}
45 км 8/8 840 м
[Cu Sc]
+20.6 +11.9 57 +23 +26 комфорт 1018.0 1005.8
11 12.07 С 1-3
{6}
50 км 6/6 1140 м
[Cu Sc]
+23.4 +10.8 45 +26 +34 жарко 1017.9 1005.8
12 12.07 СВ 2-4
{6}
50 км 5/5 1260 м
[Cu Sc]
+22.7 +10.8 47 +25 +33 комфорт 1017.8 1005.7
14 12.07 СВ 2-3
{6}
60 км 6/6 1380 м
[Cu Sc]
+24.7 +10.9 42 +26 +31 жарко 1017.5 1005.5
13 12.07 СЗ 2-4
{10}
60 км 6/6 1300 м
[Cu Sc]
+23.5 +11.2 46 +25 +31 комфорт 1017.8 1005.7
15 12.07 ЮЗ 3-5
{10}
60 км 3/3 1500 м
[Cu med, cong]
+24.8 +10.4 40 +26 +31 жарко 1017.1 1005.1
16 12.07 ЮЗ 3-4
{6}
60 км 3/3 1500 м
[Cu med, cong Ac cast]
+25.7 +9.9 37 +26 +30 жарко 1016.8 1004.8
17 12.07 З 3-5
{5}
60 км 3/1 1500 м
[Cu med, cong Ac cast Ci fib]
+25.3 +10.8 40 +26 +28 жарко 1016.8 1004.8
18 12.07 З 2 60 км 3/1 1200 м
[Cb cap Ac cast Ci fib]
+25.7 +10.4 38 +27 +27 жарко 1016.8 1004.8 +16.1 +26.7
20 12.07 СВ 5-7
{11}
40 км 8/5 1200 м
[Cb cap Ac cuf Ci fib]
+21.8 +13.4 59 +25 +25 комфорт 1018.1 1006.0
19 12.07 СЗ 3-7
{7}
40 км 4/3 1200 м
[Cb cap Ac cuf Ci fib]
+23.9 +11.2 45 +25 +25 комфорт 1017.1 1005.1
21 12.07 В 1-2
{11}
40 км 9/3 1500 м
[Cu Sc Ac As Ci fib]
+20.5 +14.0 66 +24 +24 комфорт 1018.7 1006.5
22 12.07 СВ 1-1
{4}
40 км 8/1 1500 м
[Sc Ac As]
+20.0 +14.2 69 +23 +23 комфорт 1018.9 1006.7
23 12.07 СВ 1-2
{3}
40 км 6/1 2000 м
[Sc Ac As]
+17.9 +14.0 78 +19 +19 тепло 1019.0 1006.7
00 13.07 СВ 2 40 км 6/1 2000 м
[Sc Ac As]
+16.9 +13.8 82 +17 +17 по сезону 1018.8 1006.5
02 13.07 В 1-1
{1}
35 км 6/0
[Ac trans]
+15.6 +13.4 87 +16 +16 по сезону 1019.2 1006.8
01 13.07 В 1-1
{2}
35 км 6/1 2000 м
[Sc Ac trans]
+16.4 +13.7 84 +17 +17 по сезону 1019.0 1006.7
03 13.07 В 1-2
{2}
35 км 6/0
[Ac As]
+15.4 +13.3 87 +16 +16 по сезону 1019.5 1007.1
04 13.07 В 1-1
{2}
30 км 6/0
[Ac As]
+14.4 +12.8 90 +15 +15 по сезону 1019.9 1007.5
05 13.07 В 1-2
{2}
30 км 6/0
[Ac As]
+15.9 +13.2 84 +17 +17 по сезону 1019.9 1007.5
06 13.07 В 1 30 км 3/0
[Ac trans]
+19.4 +14.1 71 +22 +25 комфорт 1019.8 1007.6 +14.2 +25.6
08 13.07 СВ 2-4
{6}
35 км 1/1 1200 м
[Cu hum Ac trans]
+22.3 +11.4 50 +24 +33 комфорт 1019.9 1007.8
07 13.07 СВ 2-3
{3}
30 км 4/0
[Ac trans]
+20.8 +13.3 62 +24 +29 комфорт 1019.9 1007.7
09 13.07 СВ 2 40 км 1/1 1380 м
[Cu med, cong Ac trans]
+23.9 +12.1 48 +26 +37 жарко 1019.8 1007.7
10 13.07 СВ 4-6
{6}
40 км 1/1 1500 м
[Cu med, cong]
+25.0 +11.3 42 +26 +36 жарко 1019.5 1007.5
11 13.07 С 3-6
{6}
45 км 3/3 1500 м
[Cu med, cong]
+26.1 +11.2 39 +27 +37 жарко 1019.4 1007.4
12 13.07 СВ 1-3
{7}
45 км 4/4 1500 м
[Cu med, cong]
+25.9 +10.8 39 +27 +39 жарко 1018.9 1006.9
14 13.07 В 2-6
{6}
50 км в посл. час ливневой дождь 5/5 1500 м
[Cb calv Ac trans Ci fib]
+27.5 +10.2 34 +28 +34 жарко 1018.2 1006.3
13 13.07 С 2-4
{5}
50 км 4/4 1500 м
[Cu med, cong Ac trans]
+27.8 +10.3 34 +28 +38 жарко 1018.4 1006.5
15 13.07 СВ 7-9
{9}
50 км осадки на расстоянии {ливн. осадки} 6/5 1500 м
[Cb cap Ac trans Ci fib]
+27.0 +10.2 35 +28 +29 жарко 1018.0 1006.1 0.0
16 13.07 СВ 4-7
{7}
50 км в посл. час ливневой дождь 6/6 1500 м
[Cb cap Ac trans Ci fib]
+26.6 +12.2 41 +28 +30 жарко 1018.1 1006.2
17 13.07 С 4-6
{10}
50 км 5/3 1500 м
[Cu med, cong Ac trans Ci fib]
+27.0 +10.1 35 +28 +29 жарко 1017.8 1005.9
18 13.07 С 3 60 км {ливн. осадки} 4/1 1500 м
[Cu med, cong Ac cast Ci ing]
+25.9 +10.5 38 +27 +27 жарко 1017.7 1005.7 +19.3 +28.4 0.2
20 13.07 СВ 1-3
{3}
60 км 3/0
[Ac cast Ci fib]
+21.3 +12.0 55 +23 +23 комфорт 1018.4 1006.3
19 13.07 С 2-5
{5}
60 км 3/0
[Ac cast Ci fib]
+24.6 +11.6 44 +26 +26 жарко 1017.9 1005.9
21 13.07 СВ 2-2
{5}
60 км 1/0
[Ac cast Ci fib]
+21.1 +12.3 57 +23 +23 комфорт 1018.9 1006.7
22 13.07 СВ 2-2
{5}
50 км 1/0
[Ac cast]
+21.7 +11.9 54 +24 +24 комфорт 1019.2 1007.1
23 13.07 СВ 2-3
{3}
50 км 1/0
[Ac cast]
+20.8 +12.3 58 +24 +24 комфорт 1019.3 1007.1
00 14.07 СВ 2-3
{5}
50 км 3/0
[Ac cast]
+19.8 +11.7 60 +22 +22 комфорт 1019.3 1007.1
02 14.07 СВ 2-2
{2}
40 км в посл. час дождь 6/0
[Ac cast Ci fib]
+20.1 +11.8 59 +22 +22 комфорт 1019.1 1006.9
01 14.07 СВ 2-2
{3}
50 км 8/0
[Ac As]
+19.9 +11.8 60 +22 +22 комфорт 1019.2 1007.0
03 14.07 СВ 2-2
{3}
50 км осадки на расстоянии {дождь} 6/0
[Ac cast Ci fib]
+19.4 +11.8 61 +21 +21 комфорт 1019.2 1007.0 0.0
04 14.07 СВ 2-2
{3}
50 км в посл. час ливневой дождь 6/3 960 м
[Cu med, cong Ac trans]
+19.6 +11.8 61 +22 +22 комфорт 1019.3 1007.1
05 14.07 В 1-2
{2}
50 км осадки на расстоянии 8/3 960 м
[Cu med, cong Ac trans]
+19.9 +11.8 60 +23 +23 комфорт 1019.3 1007.1
06 14.07 СВ 2 50 км осадки на расстоянии {ливн. осадки, дождь} 8/3 600 м
[Cu med, cong Ac trans]
+20.1 +11.8 59 +22 +24 комфорт 1019.5 1007.3 +18.4 +26.3 0.0
08 14.07 СВ 3-6
{6}
50 км 1/1 1440 м
[Cu hum Ac lent Ci fib]
+24.1 +11.2 44 +25 +33 комфорт 1019.6 1007.5
07 14.07 СВ 3-5
{5}
50 км 3/1 1200 м
[Cu med, cong Ac cast Ci fib]
+22.3 +11.5 50 +24 +28 комфорт 1019.6 1007.5
09 14.07 СВ 3 50 км 1/1 1500 м
[Cu hum Ac lent]
+25.7 +11.3 41 +27 +37 жарко 1019.4 1007.4
10 14.07 С 3-6
{7}
50 км 1/1 1500 м
[Cu hum]
+27.1 +9.5 33 +27 +39 жарко 1018.8 1006.9
11 14.07 С 4-7
{8}
50 км 1/1 1500 м
[Cu med, cong]
+27.5 +8.8 31 +28 +38 жарко 1018.4 1006.5
12 14.07 В 2-4
{8}
55 км 1/1 2000 м
[Cu med, cong]
+28.1 +8.5 29 +28 +43 жарко 1017.8 1005.9
14 14.07 С 3-6
{7}
60 км 5/4 2000 м
[Cu med, cong Ac trans]
+29.5 +8.1 26 +29 +34 жарко 1016.6 1004.8
13 14.07 СВ 3-6
{7}
60 км 3/3 2000 м
[Cu med, cong Ac trans]
+28.9 +7.4 26 +28 +37 жарко 1017.0 1005.2
15 14.07 СВ 3-5
{7}
65 км 4/3 2000 м
[Cu med, cong Ac As]
+29.3 +7.8 26 +29 +33 жарко 1016.2 1004.4
16 14.07 ЮЗ 2-3
{5}
65 км 8/3 2000 м
[Cu med, cong Ac As]
+28.8 +7.9 27 +28 +30 жарко 1015.8 1004.0
17 14.07 Ю 2-3
{3}
70 км 4/1 2000 м
[Cu med, cong Ac cast]
+29.5 +8.2 26 +29 +31 жарко 1015.4 1003.6
18 14.07 С 2 70 км осадки на расстоянии 4/3 2000 м
[Cb cap Ac cast]
+28.2 +8.4 29 +28 +28 жарко 1015.5 1003.6 +20.0 +30.4
20 14.07 С 3-5
{8}
55 км 5/1 2000 м
[Cu med, cong Ac cuf]
+25.4 +10.6 39 +26 +26 жарко 1016.1 1004.1
19 14.07 С 3-6
{6}
60 км осадки на расстоянии 6/4 2000 м
[Cb cap Ac cuf Ci ing]
+26.3 +9.7 35 +27 +27 жарко 1015.6 1003.7
21 14.07 С 6-9
{9}
50 км 6/1 2000 м
[Cu hum Ac As]
+24.9 +12.0 45 +27 +27 жарко 1016.5 1004.5
22 14.07 С 6-9
{9}
45 км 6/0
[Ac As]
+23.7 +12.8 50 +26 +26 жарко 1016.7 1004.7
23 14.07 СВ 5-8
{9}
45 км 5/0
[Ac As]
+23.1 +12.8 52 +26 +26 жарко 1016.9 1004.8
00 15.07 СВ 4-7
{9}
40 км 1/0
[Ac trans]
+22.0 +12.8 56 +25 +25 комфорт 1017.0 1004.9
02 15.07 СВ 4-6
{6}
40 км 1/0
[Ac trans]
+20.4 +12.6 61 +23 +23 комфорт 1016.6 1004.4
01 15.07 СВ 4-6
{6}
40 км 1/0
[Ac trans]
+21.0 +12.7 59 +24 +24 комфорт 1016.7 1004.6
03 15.07 СВ 3-5
{6}
40 км 1/1 1500 м
[Cu hum Ac trans]
+20.0 +12.7 63 +22 +22 комфорт 1016.4 1004.2
04 15.07 СВ 3-5
{5}
35 км 1/1 1500 м
[Sc Ac cast Ci fib]
+19.4 +12.5 64 +21 +21 комфорт 1016.4 1004.2
05 15.07 СВ 4-6
{6}
45 км 1/0
[Ac cast Ci]
+19.9 +12.4 62 +22 +22 комфорт 1016.2 1004.0
06 15.07 СВ 4 45 км 1/0
[Ci ing]
+20.6 +12.2 59 +23 +25 комфорт 1016.5 1004.3 +19.3 +28.1
08 15.07 СВ 3-5
{5}
45 км 1/0
[Ac trans Ci fib]
+23.4 +12.0 49 +26 +33 жарко 1016.3 1004.3
07 15.07 СВ 3-5
{6}
45 км 1/0
[Ac cast Ci ing]
+22.0 +12.2 54 +24 +29 комфорт 1016.6 1004.5
09 15.07 С 4 50 км 4/0
[Ac cast Ci ing]
+25.5 +11.6 42 +27 +34 жарко 1016.1 1004.1
10 15.07 СВ 3-5
{8}
50 км 6/1 1500 м
[Cu Sc Ac trans Ci fib]
+26.2 +11.7 40 +27 +36 жарко 1016.0 1004.1
11 15.07 С 3-5
{7}
50 км 8/1 1500 м
[Cu med, cong Ac As Ci fib]
+26.6 +11.8 40 +28 +36 жарко 1015.4 1003.5
12 15.07 СВ 3 50 км 8/1 1500 м
[Cu med, cong Ac cast Ci fib]
+28.4 +11.1 34 +29 +37 жарко 1014.4 1002.6
14 15.07 С 5-8
{8}
50 км осадки на расстоянии 5/4 2000 м
[Cu med, cong Ac trans Ci ing]
+28.5 +7.9 27 +28 +31 жарко 1013.3 1001.5
13 15.07 С 4-7
{8}
55 км 4/3 2000 м
[Cu med, cong Ac trans Ci ing]
+29.3 +9.6 29 +29 +36 жарко 1013.8 1002.0
15 15.07 В 3-4
{8}
60 км гроза без осадков 8/4 1500 м
[Cb cap Ac trans Ci ing]
+28.5 +7.7 27 +28 +31 жарко 1013.1 1001.3
16 15.07 ЮВ 2-4
{4}
60 км гроза без осадков туман 9/5 1500 м
[Cb cap Ac cuf Ci ing]
+28.0 +10.1 33 +28 +30 жарко 1013.0 1001.2
17 15.07 Ю 5-7
{7}
60 км в посл. час гроза 8/8 1500 м
[Cb cap]
+26.3 +10.6 37 +27 +27 жарко 1013.3 1001.4
18 15.07 ЮЗ 5 35 км слабый ливневой дождь {гроза} 8/8 1500 м
[Cb cap]
+22.5 +14.4 60 +26 +26 жарко 1014.3 1002.3 +20.7 +30.8 0.0
20 15.07 З 4-6
{7}
35 км 8/1 1500 м
[Cb cap Ac cast Ci sp]
+20.6 +13.1 62 +23 +23 комфорт 1014.4 1002.3
19 15.07 ЮЗ 4-6
{11}
35 км в посл. час ливневой дождь 9/1 1500 м
[Cb cap Ac As Ci sp]
+21.5 +13.3 60 +24 +24 комфорт 1014.1 1002.0
21 15.07 З 4 50 км {ливн. осадки} 6/1 1500 м
[Cu hum Ac trans Ci sp]
+20.4 +12.9 62 +23 +23 комфорт 1014.5 1002.4 0.0
22 15.07 З 2-3
{7}
50 км 9/1 1500 м
[Cu hum Ac As]
+20.2 +12.6 62 +23 +23 комфорт 1014.4 1002.3
23 15.07 Ю 2-3
{3}
50 км 9/1 1500 м
[Cu hum Ac As]
+18.9 +13.0 69 +20 +20 тепло 1014.6 1002.4
00 16.07 Ю 2 50 км {ливн. осадки} 9/1 1500 м
[Cu hum Ac As]
+18.2 +13.4 74 +19 +19 тепло 1015.0 1002.8
02 16.07 СЗ 1-1
{3}
50 км осадки на расстоянии 9/1 1500 м
[Cb cap Ac As]
+17.3 +12.9 75 +18 +18 тепло 1014.6 1002.3
01 16.07 Ю 1-2
{4}
50 км осадки на расстоянии 9/1 1500 м
[Cb cap Ac As]
+18.2 +12.9 71 +20 +20 тепло 1014.6 1002.4
03 16.07 ЮВ 1 50 км осадки на расстоянии 9/1 1500 м
[Cb cap Ac As]
+17.5 +13.5 77 +19 +19 тепло 1014.7 1002.4
04 16.07 ЮВ 1-2
{3}
50 км в посл. час ливневой дождь 9/1 1500 м
[Cb calv Ac As Ci sp]
+16.8 +13.3 80 +18 +18 тепло 1014.5 1002.2
05 16.07 В 1-2
{4}
35 км осадки на расстоянии 5/1 1500 м
[Cu med, cong Ac cast Ci fib]
+17.6 +13.7 78 +19 +19 тепло 1014.4 1002.2
06 16.07 ЮВ 2 35 км осадки на расстоянии {ливн. осадки} 5/1 1500 м
[Cb calv Ac cast Cc]
+19.9 +13.6 67 +22 +25 комфорт 1014.1 1002.0 +16.7 +22.6 0.0
08 16.07 ЮЗ 1-2
{5}
35 км осадки на расстоянии 5/1 1500 м
[Cb calv Ac cast Cc]
+21.5 +14.2 63 +24 +32 комфорт 1014.3 1002.2
07 16.07 Ю 1-3
{5}
35 км осадки на расстоянии 5/1 1500 м
[Cb calv Ac cast Ci fib]
+20.5 +14.1 67 +24 +29 комфорт 1014.3 1002.2
09 16.07 ЮВ 2 40 км в посл. час ливневой дождь 5/1 900 м
[Cb calv Ac cast Cc]
+22.5 +14.0 59 +26 +35 жарко 1014.2 1002.2 0.0
10 16.07 В 2-4
{5}
50 км 3/1 1200 м
[Cu med, cong Ac cast Cc]
+25.6 +11.6 42 +27 +39 жарко 1013.5 1001.6
11 16.07 СЗ 2-4
{8}
60 км 1/1 1500 м
[Cb cap Ac cast Cc]
+26.8 +10.8 37 +28 +43 жарко 1012.9 1001.0
12 16.07 Ю 2-3
{8}
60 км {ливн. осадки} 3/1 1500 м
[Cb cap Ac trans Ci ing]
+27.6 +9.9 33 +28 +41 жарко 1012.6 1000.8
14 16.07 Ю 2-4
{5}
60 км 4/3 1500 м
[Cb cap Ci ing]
+27.9 +9.4 31 +28 +36 жарко 1011.2 999.4
13 16.07 ЮЗ 2-5
{8}
60 км 3/1 1500 м
[Cb cap Ac trans Ci ing]
+28.7 +9.8 31 +29 +41 жарко 1011.7 999.9
15 16.07 Ю 3-5
{8}
60 км осадки на расстоянии 6/4 1500 м
[Cb cap Ac cuf Ci ing]
+28.6 +9.4 30 +29 +32 жарко 1010.8 999.0
16 16.07 В 1-2
{4}
60 км гроза без осадков 8/4 1500 м
[Cb cap Ac cuf Ci ing]
+28.0 +10.4 33 +28 +31 жарко 1010.5 998.7
17 16.07 СЗ 3-4
{6}
60 км в посл. час гроза туман 8/1 1500 м
[Cb cap Ac trans Ci ing]
+29.0 +10.8 32 +29 +31 жарко 1010.5 998.7
18 16.07 СЗ 3 60 км осадки на расстоянии {гроза} 6/1 1500 м
[Cb calv Ac cast Ci sp]
+27.8 +10.1 33 +28 +29 жарко 1010.5 998.7 +19.7 +30.6
20 16.07 В 2-3
{4}
60 км 4/1 1500 м
[Cb calv Ac cast Ci fib]
+24.8 +9.9 39 +26 +26 жарко 1011.6 999.7
19 16.07 С 4-6
{6}
60 км осадки на расстоянии 6/3 1500 м
[Cb cap Ac cast Ci fib]
+26.8 +8.2 31 +27 +27 жарко 1011.1 999.2
21 16.07 СВ 2-3
{6}
60 км 5/0
[Ac cast Ci fib]
+21.6 +10.6 50 +23 +23 комфорт 1012.3 1000.2
22 16.07 В 1-2
{3}
60 км 5/0
[Ac cast Ci fib]
+19.8 +11.0 57 +22 +22 комфорт 1012.8 1000.7
23 16.07 В 1-1
{2}
60 км 6/0
[Ac As Ci fib]
+18.2 +11.1 63 +20 +20 тепло 1013.0 1000.8
00 17.07 СВ 1 60 км 4/0
[Ac trans Ci fib]
+17.0 +11.0 68 +18 +18 тепло 1013.2 1000.9
02 17.07 СВ 2-3
{3}
60 км 6/0
[Ac trans Ci fib]
+14.8 +10.9 77 +15 +15 по сезону 1013.3 1000.9
01 17.07 СВ 1-1
{2}
60 км 5/0
[Ci fib]
+15.8 +10.8 72 +17 +17 по сезону 1013.2 1000.9
03 17.07 СВ 1-2
{3}
60 км 6/0
[Ac trans Ci fib]
+14.3 +10.9 80 +15 +15 по сезону 1013.4 1001.0
04 17.07 В 1-2
{2}
55 км 5/0
[Ac trans Ci fib]
+13.6 +10.8 83 +14 +14 по сезону 1013.8 1001.4
05 17.07 В 1-1
{2}
40 км 4/0
[Ac cast Ci sp]
+15.2 +11.2 77 +16 +17 по сезону 1014.1 1001.7
06 17.07 ЮВ 2 40 км 5/0
[Ac cast Ci sp]
+19.2 +11.6 61 +21 +23 комфорт 1014.2 1002.0 +13.5 +27.8
08 17.07 ЮЗ 3-5
{6}
40 км 4/0
[Ac cast Ci sp]
+23.4 +12.8 51 +26 +33 жарко 1014.0 1002.0
07 17.07 Ю 2-4
{4}
40 км 5/0
[Ac cast Ci sp]
+21.5 +12.4 56 +24 +29 комфорт 1014.3 1002.2
09 17.07 ЮЗ 3 40 км 3/1 1500 м
[Cu hum Ac cast Ci sp]
+25.8 +12.3 43 +27 +36 жарко 1013.9 1002.0
10 17.07 Ю 3-7
{7}
50 км 4/1 1500 м
[Cu med, cong Ac cast Ci fib]
+27.9 +10.8 34 +28 +38 жарко 1013.9 1002.1
11 17.07 З 3-7
{7}
50 км 5/1 1500 м
[Cu med, cong Ac cast Ci ing]
+30.3 +8.7 26 +30 +39 жарко 1013.6 1001.9
12 17.07 В 3 60 км гроза, ливневой дождь 6/1 1500 м
[Cb cap Ac cast Ci ing]
+26.3 +12.5 42 +28 +37 жарко 1013.7 1001.8 0.1
14 17.07 СВ 1-4
{6}
60 км осадки на расстоянии туман 5/1 1500 м
[Cb cap Ac cast Ci ing]
+29.1 +9.6 30 +29 +39 жарко 1013.1 1001.3
13 17.07 В 4-6
{6}
60 км в посл. час гроза {ливн. осадки} 5/1 1500 м
[Cb cap Ac cast Ci ing]
+29.9 +10.2 29 +30 +37 жарко 1013.2 1001.4

 

Местоположение метеостанции Frankfurt (Германия): широта 50.05 долгота 8.60 высота над уровнем моря 112 м.

В архиве по умолчанию представлена погода в Frankfurt за последнюю неделю. Архивные данные за месяц целиком и за предыдущие месяцы, начиная с января 2011 года, Вы можете получить, выбрав интересующий диапазон дат из раскрывающегося списка и нажав кнопку "Ввод!".


*Определитесь, кто Вы:
робот инопланетянин человек

Внимание! Время в таблицах - всемирное. Для получения местного времени необходимо прибавить поправку, которая в Frankfurt равна 1 ч.

Смотрите также архив погоды в соседних городах и на ближайших метеорологических станциях:

Погода в Offenbach Wetterpark (Германия) (13 км)
Погода в Kleiner Feldberg (Германия) (22 км)
Погода в Geisenheim (Германия) (47 км)
Погода в Michelstadt (Германия) (51 км)
Погода в Neuhuetten / Spessart (Германия) (59 км)
Погода в Mannheim (Германия) (59 км)
Погода в Giessen (Германия) (59 км)
Погода в Hoherodskopf-Vogelsberg (Германия) (68 км)
Погода в Koblenz Falckenstein-Kaserne (Германия) (81 км)
Погода в Weinbiet (Германия) (82 км)

Пояснения к столбцам:

Ветер - указаны скорость ветра в м/с - средняя за 10 мин, порывы в срок и между сроками (в фигурных скобках) и направление, откуда дует ветер: С - северный, СВ - северо-восточный, В - восточный, ЮВ - юго-восточный, Ю - южный, ЮЗ - юго-западный, З - западный, СЗ - северо-западный.
Видимость - горизонтальная дальность видимости в метрах или километрах. При видимости от 1 до 10 км при отсутствии осадков обычно наблюдается дымка, при ухудшении видимости до 1 км и менее - туман. В сухую погоду видимость может ухудшаться дымом, пылью или мглою.
Явления - указаны атмосферные явления, наблюдавшиеся в срок или в последний час перед сроком; фигурными скобками обозначены явления, наблюдавшиеся между сроками (за 1-3 часа до срока); квадратными скобками обозначены град или гололедные отложения с указанием их диаметра в мм.
Облачность - указаны через наклонную черту общая и нижняя облачность в баллах и высота нижней границы облаков в метрах; квадратными скобками обозначены формы облаков: Ci - перистые, Cs - перисто-слоистые, Cc - перисто-кучевые, Ac - высококучевые, As - высокослоистые, Sc - слоисто-кучевые, Ns - слоисто-дождевые, Cu - кучевые, Cb - кучево-дождевые. Подробнее классификацию облаков см. в Атласе облаков (PDF).
T - Температура воздуха - температура, измеренная на высоте 2 м над землей.
Td - Температура точки росы - температура, при понижении до которой содержащийся в воздухе водяной пар достигнет насыщения.
f - Относительная влажность воздуха - влажноcть воздуха, измеренная на высоте 2 м над землей.
Te - Эффективная температура - температура, которую ощущает одетый по сезону человек в тени. Характеристика душности погоды. При расчете учитывается влияние влажности воздуха и скорости ветра на теплоощущения человека.
Tes - Эффективная температура на солнце - температура, которую ощущает человек, с поправкой на солнечный нагрев. Характеристика знойности погоды. Зависит от высоты солнца над горизонтом, облачности и скорости ветра. Ночью, в пасмурную погоду, а также при ветре 12 м/с и более поправка равна нулю.
P - Атмосферное давление - приведенное к уровню моря атмосферное давление.
Po - Атмосферное давление - измеренное на уровне метеостанции атмосферное давление.
Tmin - Минимальная температура - минимум температуры воздуха на высоте 2 м над землей.
Tmax - Максимальная температура - максимум температуры воздуха на высоте 2 м над землей.
R - Количество осадков - Количество выпавших осадков за период времени, мм. При наведении курсора мыши на число - период времени, за который выпало указанное количество осадков.
R24 - Количество осадков - Количество выпавших осадков за 24 часа, мм.
S - Снежный покров - Высота снежного покрова, см. При наведении курсора мыши на число - состояние снежного покрова и степень покрытия местности в баллах.